Location: Gwatt
(46.7204°N, 7.6223°E)
Time: 08:23:01
(UTC+00:00)

Vanguard 2 - Pass Details

Date: 21 January 2021
Orbit: 552 x 2938 km, 32.9° (Epoch: 24 February)

Event Time Altitude Azimuth Distance (km) Brightness Sun altitude
Rises 22:10:38 0° 253° (WSW) 3,862 - -57.3°
Reaches altitude 10° 22:14:46 10° 228° (SW) 3,337 - -57.7°
Maximum altitude 22:18:40 14° 200° (SSW) 3,443 - -58.2°
Drops below altitude 10° 22:23:23 10° 174° (S) 4,200 - -58.7°
Sets 22:30:06 0° 154° (SSE) 5,784 - -59.3°
